Theta_e
307 299 296 300 303 302 299 299 298 301 304 303 303 304 305 310 313 314 314 316 316 314 319 322 326 329 329 331 333 333 332 333 333 332 331 330 328 329 329 329 329 327 326 326
300 295 303 304 303 301 300 297 298 301 304 303 301 300 304 306 309 313 316 316 317 317 317 318 322 327 328 329 331 333 333 333 333 333 333 332 330 330 330 331 330 329 327 327
294 299 303 301 300 298 298 297 298 297 302 304 301 299 301 306 309 311 314 317 318 319 319 319 319 323 328 329 330 331 333 333 334 334 334 332 331 330 329 330 330 330 329 328
298 302 300 300 297 300 293 302 300 298 297 292 302 290 299 303 304 306 311 314 316 318 320 321 321 320 324 328 332 332 332 333 334 334 332 330 328 327 329 330 332 332 331 329
294 298 297 296 298 302 297 302 300 299 297 296 296 291 297 302 301 304 307 312 316 318 319 320 321 322 322 327 330 332 332 332 333 334 333 332 330 330 331 331 332 332 332 331
298 303 301 300 302 302 303 298 298 297 295 286 293 293 293 298 301 304 308 309 313 315 318 321 322 323 322 324 328 331 331 331 332 332 333 331 330 330 330 330 330 331 332 332
294 295 300 301 297 301 300 295 286 284 284 283 294 292 294 302 304 306 307 309 311 314 316 319 319 321 321 321 324 328 330 329 331 332 332 332 331 331 330 331 331 331 330 331
286 284 295 300 298 296 295 295 286 280 283 286 294 288 295 304 307 308 308 310 311 311 314 317 319 320 321 321 321 326 327 327 329 331 331 332 332 332 332 332 332 331 331 331
287 286 298 299 300 299 294 290 298 290 289 286 290 295 300 304 304 305 307 308 310 311 312 315 316 318 319 321 321 320 324 326 327 328 330 330 331 332 331 332 332 332 332 331
289 284 292 296 299 299 297 299 289 289 281 280 286 289 291 298 301 304 305 307 309 311 311 311 313 316 318 320 321 321 321 322 324 326 328 329 329 331 332 332 331 331 332 331
291 288 288 291 289 291 293 291 292 291 289 283 282 287 299 299 302 303 305 306 308 309 309 310 312 314 315 317 317 318 318 319 321 324 326 327 328 329 330 330 331 331 331 330
292 289 283 286 293 295 294 293 293 286 284 288 287 288 301 303 303 304 303 305 307 308 309 310 311 312 312 311 312 313 315 315 317 322 324 325 326 327 327 328 329 330 329 329
292 287 280 282 287 291 288 292 293 293 291 285 283 286 300 302 301 303 303 302 304 304 306 307 308 309 310 310 310 311 311 312 314 318 321 323 324 324 325 326 327 327 327 327
295 288 284 280 284 287 285 288 291 291 285 286 286 289 294 296 297 300 302 304 303 303 305 305 305 305 306 306 307 307 308 310 312 316 318 320 321 322 323 324 324 324 325 324
292 284 286 287 288 287 286 286 287 285 288 285 288 289 293 296 297 299 300 301 300 302 304 306 306 305 306 306 305 304 305 307 310 313 315 317 319 321 321 321 321 321 320 318
292 284 285 282 286 286 284 287 287 288 288 288 289 288 296 297 298 297 298 299 299 300 302 304 306 304 304 304 304 303 302 304 308 310 312 315 317 317 317 318 316 312 310 311
288 286 283 280 285 285 279 284 286 287 288 288 284 290 296 295 296 296 296 298 299 300 301 302 303 306 304 305 303 303 303 303 305 307 309 311 313 310 308 304 302 301 303 303
288 286 285 280 280 272 284 289 288 286 288 289 289 290 292 292 293 297 300 299 299 301 302 303 305 307 308 304 304 302 301 301 302 303 304 301 300 300 299 299 298 298 299 298
292 287 281 278 278 280 282 285 285 283 283 289 288 290 292 293 295 294 296 296 297 301 303 304 306 308 309 308 303 300 298 298 298 299 298 297 297 296 296 295 296 297 295 295
288 290 284 277 274 272 282 288 290 289 279 289 289 289 289 290 284 288 296 300 301 305 306 305 307 308 308 308 300 296 295 295 296 297 297 297 297 295 295 295 294 293 293 291
279 280 278 279 276 280 286 289 290 277 280 290 291 291 291 289 291 295 297 297 298 301 303 301 304 305 308 304 295 294 294 295 297 295 294 294 294 294 295 294 292 291 289 289
279 277 277 278 276 272 289 287 282 287 292 292 290 292 291 293 294 295 296 296 297 296 298 300 302 303 304 302 294 296 295 298 294 294 294 293 292 291 291 290 289 288 288 288
279 283 281 281 281 288 291 290 293 288 285 282 280 283 285 285 287 289 290 291 294 295 296 298 299 300 302 300 295 295 297 294 292 291 290 290 289 289 289 289 288 288 288 288
285 288 283 284 286 288 289 289 280 279 276 276 278 279 280 280 282 282 284 286 287 290 292 294 296 297 298 300 291 296 297 291 289 290 289 288 289 288 288 289 289 289 289 289
274 280 278 282 284 274 285 275 275 273 273 275 276 275 276 277 278 279 280 281 284 287 289 291 294 296 297 298 296 293 291 290 289 290 289 288 289 288 288 289 290 290 291 291
267 264 269 275 268 266 268 272 271 270 272 271 271 272 274 275 275 276 277 281 283 285 287 287 290 293 295 296 295 291 290 289 289 289 288 289 289 289 289 289 288 291 291 291
Wind_Speed
9 8 16 31 28 19 17 15 18 19 13 10 20 22 23 19 19 17 14 15 16 15 14 15 16 17 17 17 18 19 18 18 13 11 10 10 10 9 9 9 12 12 12 12
8 15 31 18 19 21 20 17 17 14 9 10 18 22 21 21 21 23 20 19 18 17 15 15 15 17 19 19 19 19 19 19 16 11 11 10 10 9 9 10 11 13 13 13
18 16 21 15 15 17 19 21 19 15 4 13 17 23 23 26 23 23 23 22 21 20 19 17 17 18 18 20 19 19 20 19 18 17 11 9 9 10 10 11 10 12 13 14
20 21 6 25 17 14 22 21 14 14 6 13 13 13 17 18 23 25 23 24 23 22 20 18 18 20 20 19 18 20 19 20 18 18 14 16 13 12 11 10 10 10 14 14
11 13 25 13 29 20 17 13 15 15 16 15 20 12 13 21 24 19 21 23 24 22 22 22 20 18 20 19 19 19 21 20 19 18 18 14 16 11 9 10 12 13 11 14
18 4 7 27 13 17 6 4 8 8 9 13 25 18 13 18 21 15 20 20 21 22 22 22 20 19 19 17 18 17 20 20 21 20 20 20 19 16 12 12 11 9 10 10
20 17 6 4 18 11 18 11 5 6 8 12 22 17 23 9 14 18 20 19 17 16 18 19 18 17 18 19 19 19 21 21 20 21 22 23 22 20 19 15 12 12 10 10
18 14 20 16 19 15 18 20 4 9 8 11 13 9 16 17 25 24 23 18 14 15 15 15 17 15 15 15 17 19 19 20 20 21 22 20 22 14 14 15 12 11 11 11
18 18 15 18 14 11 11 22 24 19 3 4 5 12 18 10 6 9 16 15 19 16 10 13 12 14 14 14 17 18 19 19 20 22 19 20 19 20 16 17 15 12 12 10
5 14 10 17 16 19 17 6 12 8 7 12 14 17 13 11 17 17 17 17 15 12 13 14 14 13 13 12 12 14 16 18 19 18 18 17 19 19 18 15 16 15 13 13
8 7 4 16 17 21 15 15 7 1 5 9 12 12 20 16 12 11 13 17 18 17 14 10 9 9 9 8 10 14 16 18 17 18 18 18 17 18 17 16 15 14 13 13
11 4 6 14 2 7 19 21 23 7 11 6 6 13 12 16 20 16 15 12 14 13 14 11 6 5 6 9 11 13 13 14 15 16 17 17 17 17 17 16 15 14 14 13
14 7 5 3 8 10 10 17 17 18 17 19 14 14 13 12 15 16 16 16 16 16 18 12 10 8 8 9 11 13 14 14 13 15 16 16 17 17 17 16 15 14 14 13
12 5 9 10 5 4 16 15 13 16 12 15 15 25 33 28 24 19 13 17 20 19 17 15 12 10 9 9 10 11 12 12 12 14 16 17 17 18 16 15 14 14 13 12
13 8 14 17 17 11 7 6 9 17 21 18 19 23 31 31 19 17 15 18 21 21 24 18 16 13 12 9 8 8 10 9 9 12 15 18 16 15 14 14 13 11 11 10
12 3 8 10 13 14 11 14 16 18 20 17 19 21 34 31 23 23 20 21 23 25 24 25 15 13 14 13 10 8 11 11 9 12 14 13 14 14 14 11 11 10 10 10
15 7 6 8 5 5 6 23 19 21 23 22 21 23 27 29 25 20 19 19 21 25 26 25 22 17 15 12 9 11 11 8 11 13 13 13 12 11 10 10 10 10 11 10
15 10 3 2 4 7 12 9 17 21 22 21 22 23 25 33 25 16 21 21 20 21 27 26 24 20 16 14 14 11 7 9 9 10 8 7 6 9 9 11 12 11 9 10
14 9 4 5 7 11 19 23 14 9 20 16 21 23 25 28 22 27 21 22 25 22 23 22 20 22 22 16 13 8 8 8 9 12 10 9 10 11 11 12 11 9 9 8
5 13 9 5 5 8 25 6 5 10 16 25 19 19 23 24 18 24 11 18 22 17 13 16 18 18 22 21 7 9 10 10 15 13 14 14 14 14 14 13 12 9 9 9
6 4 10 7 8 13 32 5 7 8 21 13 9 15 18 19 20 23 20 21 23 23 24 24 21 18 21 12 6 11 10 16 20 10 9 11 12 13 12 11 8 11 9 9
10 10 7 7 8 20 5 7 14 10 14 14 15 15 17 20 24 23 23 23 22 26 26 22 15 17 16 12 8 15 15 22 8 12 14 13 11 9 9 12 10 10 10 10
7 10 8 15 13 15 6 4 3 15 15 15 16 21 21 24 24 25 24 24 23 26 24 20 17 21 21 13 12 17 25 8 8 10 12 13 12 10 11 12 12 10 10 10
5 6 7 3 23 22 14 16 19 15 15 18 19 21 20 24 24 25 23 21 20 22 23 20 21 24 24 17 13 22 16 7 10 13 13 12 14 14 12 9 10 9 10 10
5 9 8 16 13 24 11 18 21 29 27 23 20 19 24 24 25 23 25 24 22 23 23 20 22 23 27 19 16 16 10 11 12 12 11 12 11 13 12 11 12 12 11 12
7 7 5 9 14 10 18 21 30 30 26 24 26 27 24 22 25 24 27 22 20 23 23 23 25 24 26 20 18 12 11 14 14 13 11 12 12 11 11 11 8 7 9 12
Wind_Direction
185 207 209 214 217 231 249 243 234 240 237 240 247 250 254 250 242 236 234 231 223 221 226 219 210 208 208 210 209 212 206 204 199 201 199 207 210 207 215 218 215 214 212 208
198 233 225 226 229 234 243 247 244 243 240 226 260 259 256 254 251 249 240 237 230 219 219 217 211 204 208 210 210 212 213 207 205 200 203 206 210 217 215 212 214 213 212 212
201 228 230 233 233 232 229 236 236 248 225 233 272 271 265 259 254 250 247 242 245 226 222 218 206 213 208 210 207 209 210 209 205 204 203 195 216 215 209 217 212 211 211 210
221 218 204 212 231 213 234 220 245 263 276 254 228 281 267 255 238 231 235 236 233 234 226 221 218 204 212 215 210 210 210 209 207 202 205 202 205 209 213 207 211 208 207 213
209 227 226 227 222 220 243 236 236 242 251 264 262 267 268 252 259 249 232 230 232 228 228 222 216 220 208 208 212 212 206 208 206 207 205 209 214 216 214 212 211 207 207 210
215 173 240 224 229 218 222 228 246 235 248 238 243 239 255 243 257 255 254 241 233 233 229 229 219 212 217 208 205 209 212 210 205 203 203 212 215 215 213 215 208 208 204 207
216 204 202 252 210 232 211 199 203 217 206 238 238 237 241 261 264 266 254 254 250 243 228 232 228 220 216 207 201 204 207 209 209 206 206 207 214 216 219 213 212 203 206 206
197 202 200 191 215 201 213 211 210 221 229 245 208 228 245 227 238 256 268 270 266 275 265 231 230 231 227 217 207 205 209 211 205 206 211 212 213 218 218 216 214 214 212 209
199 219 175 195 195 204 206 220 232 268 260 297 236 255 270 245 257 271 269 274 262 244 255 263 255 235 235 223 216 210 211 212 213 209 207 212 211 215 216 214 216 215 210 212
200 221 204 199 196 223 236 205 215 207 213 228 239 243 254 226 233 238 253 260 265 257 246 246 250 241 237 229 223 221 221 219 214 214 211 212 212 212 215 215 214 213 212 206
213 229 140 195 202 211 207 227 230 257 243 255 273 250 251 255 269 256 244 262 275 276 274 257 261 248 242 232 234 233 222 221 218 212 214 212 211 211 211 211 213 209 207 207
190 207 204 197 169 228 233 228 234 240 205 211 285 269 290 303 313 311 336 292 288 294 295 309 318 248 226 217 232 230 233 222 220 215 212 211 212 208 207 209 208 204 206 204
174 202 162 216 264 239 228 233 227 241 256 261 265 274 278 313 318 318 317 341 328 326 302 293 290 267 259 239 236 238 230 229 219 215 212 208 208 208 204 202 202 201 199 201
169 191 222 219 192 92 218 222 234 233 243 249 238 262 273 270 276 284 300 308 313 311 304 301 293 288 266 249 249 242 236 223 218 206 210 207 205 204 201 197 196 194 193 193
184 223 220 238 261 300 268 231 225 236 243 240 254 255 268 273 284 293 283 288 298 294 296 297 296 287 282 267 243 243 253 241 216 215 212 205 205 204 198 192 189 181 180 176
207 214 225 263 251 244 253 256 245 239 248 253 258 262 262 274 285 278 272 268 268 277 279 284 276 266 268 263 258 240 232 232 207 214 218 214 197 196 190 178 170 164 168 171
188 162 161 244 195 215 269 233 238 245 248 243 248 254 277 275 272 284 289 277 280 275 281 281 280 266 252 248 243 243 232 203 203 216 216 215 194 181 170 154 156 162 165 157
182 176 166 174 92 232 246 273 238 237 244 249 256 259 263 272 277 290 277 280 282 275 277 274 279 277 260 232 233 233 210 205 198 207 206 178 177 168 164 164 161 157 160 162
187 166 175 225 206 285 290 251 235 240 268 263 254 253 262 275 293 273 270 278 271 267 266 271 273 280 286 275 240 209 202 199 199 204 192 178 176 178 171 169 169 162 150 152
217 200 213 131 225 241 256 306 278 276 271 247 253 267 268 275 276 278 326 309 301 296 288 276 275 278 279 273 177 190 213 206 220 210 198 189 184 175 182 172 164 163 161 159
162 188 223 218 243 263 261 149 234 223 248 294 271 266 269 268 269 298 307 301 298 293 291 296 289 284 279 281 197 218 209 218 225 198 185 180 187 182 171 157 150 154 154 150
166 174 197 195 225 257 258 209 214 250 284 315 345 326 329 317 313 316 308 305 301 296 296 297 292 280 273 259 194 237 233 237 185 186 187 186 171 161 153 152 146 149 153 153
206 202 181 197 215 239 279 330 19 15 354 23 348 327 326 311 308 313 312 313 307 305 304 303 296 290 282 266 223 240 245 204 185 176 186 173 156 154 156 157 156 155 162 164
217 257 242 258 248 263 306 342 11 7 351 337 323 313 314 306 310 308 305 305 300 296 294 298 292 281 276 268 223 237 251 172 167 189 184 170 167 161 157 156 163 167 174 173
351 315 334 264 290 334 297 1 344 330 325 322 322 314 305 305 300 301 296 299 296 291 292 290 280 279 273 275 252 237 215 172 187 190 178 173 171 174 166 176 176 178 187 186
8 10 309 290 341 313 298 313 320 311 316 328 317 311 304 300 296 298 289 290 294 293 293 290 286 280 278 277 264 233 197 182 183 185 178 176 171 171 169 165 152 156 153 164